This is the latest recevied weather packets stored in our database for station/object KQ4WWD. If no packets are shown the sender has not sent any weather packets the latest 10 day(s).
| Time | Temp. | Humidity | Pressure | Rain* | Wind** | Luminosity | Snow |
|---|---|---|---|---|---|---|---|
| 1787958132 | 27.22° C | 85% | 1015.6 hPa | 0 mm | - | 48 W/m² | - |
| 1787957830 | 27.22° C | 85% | 1015.6 hPa | 0 mm | - | 53 W/m² | - |
| 1787957525 | 26.67° C | 85% | 1015.6 hPa | 0 mm | - | 61 W/m² | - |
| 1787957220 | 27.22° C | 85% | 1015.6 hPa | 0 mm | - | 69 W/m² | - |
| 1787956915 | 26.67° C | 85% | 1015.9 hPa | 0 mm | - | 77 W/m² | - |
| 1787956615 | 26.67° C | 85% | 1015.9 hPa | 0 mm | - | 85 W/m² | - |
| 1787956309 | 26.67° C | 85% | 1016.2 hPa | 0 mm | - | 92 W/m² | - |
| 1787956005 | 26.67° C | 85% | 1016.1 hPa | 0 mm | - | 94 W/m² | - |
| 1787955700 | 26.67° C | 86% | 1016.4 hPa | 0 mm | - | 97 W/m² | - |
| 1787955396 | 26.67° C | 86% | 1016.5 hPa | 0 mm | - | 106 W/m² | - |
| 1787955094 | 26.67° C | 86% | 1016.5 hPa | 0 mm | - | 115 W/m² | - |
| 1787954791 | 26.67° C | 86% | 1016.4 hPa | 0 mm | - | 123 W/m² | - |
| 1787954486 | 27.22° C | 85% | 1016.4 hPa | 0 mm | - | 131 W/m² | - |
| 1787954185 | 27.22° C | 84% | 1016.4 hPa | 0 mm | - | 135 W/m² | - |
| 1787953880 | 27.22° C | 84% | 1016.5 hPa | 0 mm | - | 139 W/m² | - |
| 1787953579 | 26.67° C | 85% | 1016.4 hPa | 0 mm | - | 142 W/m² | - |
| 1787953274 | 26.67° C | 85% | 1016 hPa | 0 mm | - | 146 W/m² | - |
| 1787952972 | 26.67° C | 86% | 1016.2 hPa | 0 mm | - | 150 W/m² | - |
| 1787952675 | 26.67° C | 87% | 1016 hPa | 0 mm | - | 154 W/m² | - |
| 1787952366 | 26.11° C | 88% | 1016.2 hPa | 0 mm | - | 152 W/m² | - |
| 1787952063 | 26.11° C | 88% | 1015.8 hPa | 0 mm | - | 144 W/m² | - |
| 1787951762 | 26.11° C | 88% | 1016 hPa | 0 mm | - | 139 W/m² | - |
| 1787951458 | 26.11° C | 88% | 1015.9 hPa | 0 mm | - | 146 W/m² | - |
| 1787951153 | 26.11° C | 88% | 1016 hPa | 0 mm | - | 158 W/m² | - |
| 1787950849 | 25.56° C | 89% | 1015.7 hPa | 0 mm | - | 171 W/m² | - |
* Rain latest hour (hover to see other rain measurements)
** Current wind speed in m/s (hover to see current wind gust speed)